GW5351 Weather Reports


Display with metric or nautical units.
time (UTC)temp
F
wind
direction
speed
MPH
gust
MPH
rain 1hr
in
rain 24hr
in
rain mn
in
humidity
%
barometer
mb
20260904224052 87 221 0.0 0.0 0.00 0.77 0.77 77 1013.6
20260904223551 87 221 0.0 1.0 0.00 0.77 0.77 76 1013.4
20260904223047 88 194 0.0 0.0 0.00 0.77 0.77 74 1013.5
20260904222542 88 200 1.0 1.0 0.00 0.77 0.77 74 1013.6
20260904222037 89 214 0.0 0.0 0.00 0.77 0.77 72 1013.6
20260904221533 89 221 0.0 1.0 0.00 0.77 0.77 72 1013.6
20260904221032 89 222 0.0 2.0 0.00 0.77 0.77 71 1013.7
20260904220532 89 195 0.0 1.0 0.00 0.77 0.77 71 1013.6
20260904220028 89 188 2.0 3.0 0.00 0.77 0.77 70 1013.8
20260904215528 89 221 0.0 2.0 0.00 0.77 0.77 70 1013.7
20260904215024 89 183 2.0 2.0 0.00 0.77 0.77 70 1013.8
20260904214519 89 236 1.0 2.0 0.00 0.77 0.77 73 1013.7
20260904214014 89 226 2.0 3.0 0.00 0.77 0.77 71 1013.7
20260904213513 89 204 0.0 0.0 0.00 0.77 0.77 74 1013.7
20260904213010 89 231 1.0 2.0 0.00 0.77 0.77 73 1013.8
20260904212509 89 195 1.0 2.0 0.00 0.77 0.77 74 1013.8
20260904212004 89 244 0.0 0.0 0.00 0.77 0.77 75 1013.9
20260904211504 89 220 0.0 1.0 0.00 0.77 0.77 73 1014.1
20260904211000 89 219 0.0 1.0 0.00 0.77 0.77 73 1013.9
20260904210458 89 217 0.0 2.0 0.00 0.77 0.77 74 1014.0
20260904205954 90 235 0.0 2.0 0.00 0.77 0.77 73 1014.0
20260904205449 89 219 1.0 2.0 0.00 0.77 0.77 74 1014.3
20260904204947 88 222 0.0 2.0 0.00 0.77 0.77 77 1014.6
20260904204442 88 232 0.0 2.0 0.00 0.77 0.77 75 1014.5
20260904203938 86 220 0.0 0.0 0.00 0.77 0.77 80 1014.7
20260904203434 85 243 0.0 2.0 0.00 0.77 0.77 86 1014.6
20260904202930 83 255 0.0 0.0 0.00 0.77 0.77 89 1014.8
20260904202426 82 226 0.0 0.0 0.00 0.77 0.77 89 1015.1
20260904201922 82 226 0.0 0.0 0.00 0.77 0.77 88 1015.0
20260904201417 82 208 0.0 0.0 0.00 0.77 0.77 90 1015.0
20260904200912 81 208 0.0 0.0 0.00 0.77 0.77 92 1014.9
20260904200410 81 208 0.0 1.0 0.00 0.77 0.77 92 1015.1
20260904195906 80 220 0.0 1.0 0.00 0.77 0.77 92 1015.1
20260904195403 80 220 1.0 2.0 0.00 0.77 0.77 93 1015.0
20260904194858 79 220 1.0 1.0 0.00 0.77 0.77 94 1015.0
20260904194358 79 248 0.0 0.0 0.00 0.77 0.77 97 1015.0
20260904193853 78 248 0.0 1.0 0.00 0.77 0.77 98 1015.1
20260904193348 78 248 1.0 1.0 0.00 0.77 0.77 98 1014.9
20260904192844 78 243 1.0 3.0 0.00 0.77 0.77 98 1014.9
20260904192339 78 197 0.0 1.0 0.00 0.77 0.77 98 1015.2
20260904191836 77 199 0.0 1.0 0.00 0.77 0.77 98 1015.3
20260904191332 77 236 1.0 1.0 0.00 0.77 0.77 99 1015.2
20260904190828 77 221 0.0 0.0 0.00 0.77 0.77 99 1015.4
20260904190324 77 221 0.0 0.0 0.00 0.77 0.77 99 1015.4
20260904185820 77 239 0.0 1.0 0.00 0.77 0.77 99 1015.5
20260904185315 77 225 0.0 1.0 0.00 0.77 0.77 99 1015.8
20260904184815 77 202 0.0 1.0 0.00 0.77 0.77 99 1015.9
20260904184310 77 237 1.0 2.0 0.00 0.77 0.77 99 1016.0
20260904183805 76 209 0.0 2.0 0.00 0.77 0.77 99 1016.2
20260904183306 76 220 0.0 0.0 0.00 0.77 0.77 99 1016.1
20260904182801 76 219 0.0 2.0 0.00 0.77 0.77 99 1016.3
20260904182255 75 236 0.0 1.0 0.00 0.77 0.77 98 1016.4
20260904181751 75 236 1.0 1.0 0.00 0.77 0.77 99 1016.5
20260904181251 75 223 2.0 3.0 0.00 0.77 0.77 98 1016.6
20260904180747 75 242 0.0 0.0 0.05 0.77 0.77 98 1016.4
20260904180242 75 243 1.0 2.0 0.24 0.77 0.77 98 1016.3
20260904175741 75 278 2.0 2.0 0.61 0.76 0.76 98 1016.5
20260904175239 75 216 2.0 4.0 1.25 0.73 0.73 98 1016.5
20260904174734 75 259 5.0 7.0 2.17 0.65 0.65 97 1016.8
20260904174230 76 229 3.0 6.0 1.56 0.45 0.45 96 1017.4
20260904173726 77 199 3.0 8.0 0.28 0.23 0.23 95 1017.7
20260904173226 77 213 2.0 4.0 0.24 0.19 0.19 93 1017.2
20260904172723 78 219 1.0 1.0 1.04 0.18 0.18 91 1017.0
20260904172221 82 269 1.0 2.0 0.66 0.12 0.12 85 1016.8
20260904171717 83 234 0.0 2.0 0.00 0.01 0.01 77 1016.6
20260904171212 83 239 1.0 1.0 0.00 0.01 0.01 77 1016.5
20260904170708 84 242 0.0 3.0 0.00 0.01 0.01 77 1016.5
20260904170204 85 230 1.0 7.0 0.00 0.01 0.01 76 1016.5
20260904165703 89 265 3.0 6.0 0.00 0.01 0.01 72 1016.6
20260904165202 91 265 3.0 3.0 0.00 0.01 0.01 74 1016.5
20260904164657 92 266 2.0 2.0 0.00 0.01 0.01 70 1016.2
20260904164152 93 183 0.0 4.0 0.00 0.01 0.01 67 1016.3
20260904163648 93 169 3.0 4.0 0.00 0.01 0.01 66 1016.4
20260904163143 93 223 2.0 3.0 0.00 0.01 0.01 71 1016.4
20260904162642 91 221 0.0 2.0 0.00 0.01 0.01 74 1016.3
20260904162137 89 194 1.0 3.0 0.00 0.01 0.01 75 1016.3
20260904161633 91 281 1.0 3.0 0.00 0.01 0.01 74 1016.1
20260904161129 91 203 1.0 3.0 0.00 0.01 0.01 74 1016.0
20260904160624 92 189 0.0 3.0 0.00 0.01 0.01 73 1016.0
20260904160120 91 216 2.0 2.0 0.00 0.01 0.01 76 1015.8
20260904155614 90 330 3.0 4.0 0.00 0.01 0.01 77 1015.9
20260904155108 91 292 2.0 2.0 0.00 0.01 0.01 75 1016.0
20260904154601 90 225 1.0 2.0 0.00 0.01 0.01 76 1015.8
20260904154056 90 210 0.0 3.0 0.00 0.01 0.01 75 1016.0
20260904153555 90 173 1.0 2.0 0.00 0.01 0.01 77 1015.9
20260904153052 89 222 0.0 2.0 0.00 0.01 0.01 79 1016.0
20260904152548 89 206 0.0 1.0 0.00 0.01 0.01 80 1015.9
20260904152043 89 157 0.0 3.0 0.00 0.01 0.01 79 1015.8
20260904151538 89 214 1.0 2.0 0.00 0.01 0.01 83 1016.0
20260904151038 88 302 0.0 2.0 0.00 0.01 0.01 84 1015.9
20260904150538 88 214 2.0 3.0 0.00 0.01 0.01 84 1015.9
20260904150033 88 249 1.0 3.0 0.00 0.01 0.01 84 1015.9
20260904145532 88 191 0.0 2.0 0.00 0.01 0.01 84 1015.7
20260904145027 87 176 0.0 0.0 0.00 0.01 0.01 85 1015.8
20260904144523 87 203 0.0 1.0 0.00 0.01 0.01 85 1015.8
20260904144019 87 197 0.0 2.0 0.00 0.01 0.01 86 1015.9
20260904143514 86 167 0.0 2.0 0.00 0.01 0.01 87 1015.9
20260904143012 86 245 1.0 2.0 0.00 0.01 0.01 87 1015.8
20260904142508 86 210 0.0 2.0 0.00 0.01 0.01 87 1015.8
20260904142007 86 173 0.0 0.0 0.00 0.01 0.01 88 1015.7
20260904141502 85 217 1.0 2.0 0.00 0.01 0.01 90 1015.9
20260904140959 84 218 0.0 2.0 0.00 0.01 0.01 91 1015.8
20260904140459 83 218 0.0 2.0 0.00 0.01 0.01 93 1015.8
20260904135957 82 74 1.0 2.0 0.00 0.01 0.01 96 1015.6
20260904135452 81 46 0.0 0.0 0.00 0.01 0.01 99 1015.8
20260904134949 81 184 0.0 2.0 0.00 0.01 0.01 99 1015.7
20260904134448 80 218 0.0 1.0 0.00 0.01 0.01 99 1015.4
20260904133943 80 192 0.0 1.0 0.00 0.01 0.01 99 1015.7
20260904133438 79 203 0.0 0.0 0.00 0.01 0.01 99 1015.5
20260904132933 79 203 0.0 0.0 0.00 0.01 0.01 99 1015.6
20260904132428 79 213 0.0 0.0 0.00 0.01 0.01 99 1015.4
20260904131928 79 251 0.0 2.0 0.00 0.01 0.01 99 1015.5
20260904131423 78 190 0.0 1.0 0.00 0.01 0.01 99 1015.5
20260904130919 79 191 0.0 0.0 0.00 0.01 0.01 99 1015.3
20260904130418 78 190 0.0 0.0 0.00 0.01 0.01 99 1015.4
20260904125913 78 190 0.0 1.0 0.00 0.01 0.01 99 1015.5
20260904125410 78 202 0.0 0.0 0.00 0.01 0.01 99 1015.3
20260904124908 78 203 0.0 0.0 0.00 0.01 0.01 99 1015.3
20260904124405 78 202 0.0 0.0 0.00 0.01 0.01 99 1015.1
20260904123901 78 203 0.0 0.0 0.00 0.01 0.01 99 1014.9
20260904123355 78 203 0.0 0.0 0.00 0.01 0.01 99 1015.1
20260904122851 78 203 0.0 0.0 0.00 0.01 0.01 99 1014.9
20260904122350 78 203 0.0 0.0 0.00 0.01 0.01 99 1014.9
20260904121845 78 230 0.0 0.0 0.00 0.01 0.01 99 1014.9
20260904121342 78 218 0.0 0.0 0.00 0.01 0.01 99 1014.8
20260904120837 78 237 0.0 0.0 0.00 0.01 0.01 99 1014.7
20260904120333 78 237 0.0 0.0 0.00 0.01 0.01 99 1014.6
20260904115828 78 237 0.0 0.0 0.00 0.01 0.01 99 1014.6
20260904115323 78 238 0.0 0.0 0.00 0.01 0.01 99 1014.8
20260904114823 77 209 0.0 0.0 0.00 0.01 0.01 99 1014.7
20260904114318 77 212 0.0 0.0 0.00 0.01 0.01 99 1014.7
20260904113813 77 192 0.0 0.0 0.00 0.01 0.01 99 1014.7
20260904113312 77 191 0.0 0.0 0.00 0.01 0.01 99 1014.7
20260904112807 78 191 0.0 0.0 0.00 0.01 0.01 99 1014.6
20260904112305 78 192 0.0 0.0 0.00 0.01 0.01 99 1014.6
20260904111758 78 191 0.0 0.0 0.00 0.01 0.01 99 1014.5
20260904111254 78 192 0.0 0.0 0.00 0.01 0.01 99 1014.6
20260904110749 78 192 0.0 0.0 0.00 0.01 0.01 99 1014.5
20260904110248 78 192 0.0 0.0 0.00 0.01 0.01 99 1014.5
20260904105744 78 192 0.0 0.0 0.00 0.01 0.01 99 1014.5
20260904105238 78 192 0.0 0.0 0.00 0.01 0.01 99 1014.4
20260904104733 78 190 0.0 1.0 0.00 0.01 0.01 99 1014.3
20260904104229 78 203 0.0 0.0 0.00 0.01 0.01 99 1014.4
20260904103726 78 204 0.0 0.0 0.00 0.01 0.01 99 1014.1
20260904103220 78 204 0.0 0.0 0.00 0.01 0.01 99 1014.2
20260904102716 78 204 0.0 0.0 0.00 0.01 0.01 99 1014.3
20260904102211 78 204 0.0 0.0 0.00 0.01 0.01 99 1014.2
20260904101708 78 203 0.0 0.0 0.05 0.01 0.01 99 1014.2
20260904101203 78 203 0.0 0.0 0.05 0.01 0.01 99 1014.1
20260904100659 78 203 0.0 0.0 0.00 0.00 0.00 99 1014.2
20260904100155 78 203 0.0 0.0 0.00 0.00 0.00 99 1014.2
20260904095654 78 203 0.0 0.0 0.00 0.00 0.00 99 1014.2
20260904095148 78 203 0.0 0.0 0.00 0.00 0.00 99 1014.2
20260904094644 78 203 0.0 0.0 0.00 0.00 0.00 99 1014.2
20260904094139 78 203 0.0 0.0 0.00 0.00 0.00 99 1014.0
20260904093636 78 203 0.0 0.0 0.00 0.00 0.00 99 1014.2
20260904093135 78 203 0.0 0.0 0.00 0.00 0.00 99 1014.1
20260904092631 78 203 0.0 0.0 0.00 0.00 0.00 99 1013.9
20260904092127 78 203 0.0 0.0 0.00 0.00 0.00 99 1013.9
20260904091623 78 203 0.0 0.0 0.00 0.00 0.00 99 1013.9
20260904091123 78 203 0.0 0.0 0.00 0.00 0.00 99 1013.9
20260904090618 78 203 0.0 0.0 0.00 0.00 0.00 99 1013.8
20260904090114 78 203 0.0 0.0 0.00 0.00 0.00 99 1013.8
20260904085609 78 208 0.0 0.0 0.00 0.00 0.00 99 1013.8
20260904085108 78 208 0.0 0.0 0.00 0.00 0.00 99 1013.9
20260904084604 78 208 0.0 0.0 0.00 0.00 0.00 99 1014.0
20260904084101 78 191 0.0 0.0 0.00 0.00 0.00 99 1013.9
20260904083556 78 192 0.0 0.0 0.00 0.00 0.00 99 1014.0
20260904083052 78 192 0.0 0.0 0.00 0.00 0.00 99 1013.9
20260904082547 78 212 0.0 0.0 0.00 0.00 0.00 99 1013.7
20260904082042 78 212 0.0 0.0 0.00 0.00 0.00 99 1013.9
20260904081537 78 212 0.0 0.0 0.00 0.00 0.00 99 1013.9
20260904081033 78 212 0.0 0.0 0.00 0.00 0.00 99 1014.0
20260904080528 78 212 0.0 0.0 0.00 0.00 0.00 99 1014.0
20260904080024 78 212 0.0 0.0 0.00 0.00 0.00 99 1014.0
20260904075519 78 212 0.0 0.0 0.00 0.00 0.00 99 1013.9
20260904075014 78 212 0.0 0.0 0.00 0.00 0.00 99 1014.1
20260904074508 78 212 0.0 0.0 0.00 0.00 0.00 99 1013.9
20260904074003 78 212 0.0 0.0 0.00 0.00 0.00 99 1014.1
20260904073453 78 212 0.0 0.0 0.00 0.00 0.00 99 1014.2
20260904072949 78 212 0.0 0.0 0.00 0.00 0.00 99 1014.2
20260904072445 78 212 0.0 0.0 0.00 0.00 0.00 99 1014.3
20260904071944 78 212 0.0 0.0 0.00 0.00 0.00 99 1014.4
20260904071440 79 212 0.0 0.0 0.00 0.00 0.00 99 1014.4
20260904070935 79 212 0.0 0.0 0.00 0.00 0.00 99 1014.4
20260904070434 79 211 0.0 0.0 0.00 0.00 0.00 99 1014.3
20260904065934 78 211 0.0 0.0 0.00 0.00 0.00 99 1014.3
20260904065430 79 211 0.0 0.0 0.00 0.00 0.00 99 1014.4
20260904064925 79 211 0.0 0.0 0.00 0.00 0.00 99 1014.3
20260904064421 78 211 0.0 0.0 0.00 0.00 0.00 99 1014.4
20260904063916 78 211 0.0 0.0 0.00 0.00 0.00 99 1014.5
20260904063413 78 211 0.0 0.0 0.00 0.00 0.00 99 1014.3
20260904062912 78 211 0.0 0.0 0.00 0.00 0.00 99 1014.3
20260904062409 78 211 0.0 0.0 0.00 0.00 0.00 99 1014.4
20260904061905 78 211 0.0 0.0 0.00 0.00 0.00 99 1014.4
20260904061401 78 211 0.0 0.0 0.00 0.00 0.00 99 1014.4
20260904060857 78 211 0.0 0.0 0.00 0.00 0.00 99 1014.4
20260904060353 78 211 0.0 0.0 0.00 0.00 0.00 99 1014.6
20260904055848 78 211 0.0 0.0 0.00 0.00 0.00 99 1014.5
20260904055343 78 211 0.0 0.0 0.00 0.00 0.00 99 1014.4
20260904054838 78 211 0.0 0.0 0.00 0.00 0.00 99 1014.4
20260904054334 78 211 0.0 0.0 0.00 0.00 0.00 99 1014.5
20260904053830 78 211 0.0 0.0 0.00 0.00 0.00 99 1014.3
20260904053329 78 211 0.0 0.0 0.00 0.00 0.00 99 1014.2
20260904052825 78 211 0.0 0.0 0.00 0.00 0.00 99 1014.3
20260904052321 78 211 0.0 0.0 0.00 0.00 0.00 99 1014.2
20260904051818 78 211 0.0 0.0 0.00 0.00 0.00 99 1014.5
20260904051313 78 211 0.0 0.0 0.00 0.00 0.00 99 1014.3
20260904050808 78 211 0.0 0.0 0.00 0.00 0.00 99 1014.2
20260904050304 78 211 0.0 0.0 0.00 0.00 0.00 99 1014.2
20260904045759 78 211 0.0 0.0 0.00 1.59 1.59 99 1014.1
20260904045259 78 211 0.0 0.0 0.00 1.59 1.59 99 1014.2
20260904044753 78 211 0.0 0.0 0.00 1.59 1.59 99 1014.3
20260904044250 78 211 0.0 0.0 0.00 1.59 1.59 99 1014.2
20260904043746 78 211 0.0 0.0 0.00 1.59 1.59 99 1014.2
20260904043242 78 211 0.0 0.0 0.00 1.59 1.59 99 1014.1
20260904042737 78 211 0.0 0.0 0.00 1.59 1.59 99 1014.2
20260904042234 78 211 0.0 0.0 0.00 1.59 1.59 99 1014.1
20260904041732 78 211 0.0 0.0 0.00 1.59 1.59 99 1014.2
20260904041229 78 211 0.0 0.0 0.00 1.59 1.59 99 1014.2
20260904040725 78 211 0.0 0.0 0.00 1.59 1.59 99 1014.4
20260904040220 78 211 0.0 0.0 0.00 1.59 1.59 99 1014.2
20260904035716 78 211 0.0 0.0 0.00 1.59 1.59 98 1014.2
20260904035212 78 211 0.0 0.0 0.00 1.59 1.59 98 1014.3
20260904034710 78 212 0.0 0.0 0.00 1.59 1.59 98 1014.4
20260904034206 78 212 0.0 0.0 0.00 1.59 1.59 98 1014.3
20260904033702 78 212 0.0 0.0 0.00 1.59 1.59 98 1014.3
20260904033159 78 212 0.0 0.0 0.00 1.59 1.59 98 1014.2
20260904032654 78 211 0.0 0.0 0.00 1.59 1.59 98 1014.3
20260904032153 78 211 0.0 0.0 0.00 1.59 1.59 98 1014.3
20260904031648 78 212 0.0 0.0 0.00 1.59 1.59 98 1014.1
20260904031143 78 211 0.0 0.0 0.00 1.59 1.59 98 1014.4
20260904030639 78 212 0.0 0.0 0.00 1.59 1.59 98 1014.4
20260904030134 78 212 0.0 0.0 0.00 1.59 1.59 98 1014.2
20260904025630 78 218 0.0 0.0 0.00 1.59 1.59 98 1014.2
20260904025125 78 212 0.0 0.0 0.00 1.59 1.59 98 1014.0
20260904024620 78 212 0.0 0.0 0.00 1.59 1.59 98 1014.2
20260904024115 78 212 0.0 0.0 0.00 1.59 1.59 98 1014.1
20260904023612 78 211 0.0 0.0 0.00 1.59 1.59 98 1014.1
20260904023108 78 212 0.0 0.0 0.00 1.59 1.59 98 1013.9
20260904022602 78 212 0.0 0.0 0.00 1.59 1.59 98 1014.0
20260904022059 78 211 0.0 0.0 0.00 1.59 1.59 98 1013.9
20260904021554 78 212 0.0 0.0 0.00 1.59 1.59 97 1013.7
20260904021049 78 211 0.0 0.0 0.00 1.59 1.59 97 1013.7
20260904020544 78 211 0.0 0.0 0.00 1.59 1.59 97 1013.6
20260904020039 78 248 0.0 0.0 0.00 1.59 1.59 97 1013.8
20260904015533 78 196 0.0 0.0 0.00 1.59 1.59 97 1013.6
20260904015032 78 195 0.0 0.0 0.00 1.59 1.59 97 1013.4
20260904014526 78 195 0.0 1.0 0.00 1.59 1.59 97 1013.6
20260904014022 78 198 0.0 0.0 0.00 1.59 1.59 97 1013.4
20260904013518 78 202 0.0 0.0 0.00 1.59 1.59 97 1013.3
20260904013015 78 202 0.0 1.0 0.00 1.59 1.59 97 1013.1
20260904012514 78 202 0.0 0.0 0.00 1.59 1.59 96 1013.4
20260904012009 78 202 0.0 0.0 0.00 1.59 1.59 96 1013.2
20260904011503 78 203 0.0 0.0 0.00 1.59 1.59 96 1013.2
20260904010958 79 190 0.0 0.0 0.00 1.59 1.59 96 1013.1
20260904010455 79 211 0.0 0.0 0.00 1.59 1.59 96 1013.4
20260904005954 79 216 0.0 0.0 0.00 1.59 1.59 96 1013.1
20260904005450 79 204 0.0 0.0 0.00 1.59 1.59 95 1013.1
20260904004945 79 204 0.0 0.0 0.00 1.59 1.59 95 1013.1
20260904004441 79 212 0.0 1.0 0.00 1.59 1.59 95 1013.2
20260904003935 79 212 0.0 0.0 0.00 1.59 1.59 94 1013.1
20260904003431 79 212 0.0 0.0 0.00 1.59 1.59 94 1013.2
20260904002926 80 211 0.0 0.0 0.00 1.59 1.59 93 1013.5
20260904002423 80 209 0.0 1.0 0.00 1.59 1.59 93 1013.5
20260904001922 80 192 0.0 0.0 0.00 1.59 1.59 93 1013.5
20260904001418 80 270 0.0 1.0 0.00 1.59 1.59 92 1013.5
20260904000917 80 242 0.0 1.0 0.00 1.59 1.59 92 1013.4
20260904000418 80 232 0.0 1.0 0.00 1.59 1.59 92 1013.5
20260903235912 81 202 0.0 1.0 0.00 1.59 1.59 91 1013.5
20260903235408 81 221 0.0 1.0 0.00 1.59 1.59 91 1013.6
20260903234908 81 203 0.0 1.0 0.00 1.59 1.59 90 1013.6
20260903234403 81 191 0.0 0.0 0.00 1.59 1.59 90 1013.5
20260903233859 81 213 0.0 0.0 0.00 1.59 1.59 90 1013.8
20260903233356 81 196 0.0 1.0 0.00 1.59 1.59 91 1013.7
20260903232854 81 199 0.0 2.0 0.00 1.59 1.59 92 1013.9
20260903232350 81 206 0.0 0.0 0.00 1.59 1.59 92 1013.9
20260903231849 81 194 0.0 1.0 0.00 1.59 1.59 93 1013.9
20260903231345 80 250 0.0 1.0 0.00 1.59 1.59 93 1014.0
20260903230840 80 281 2.0 2.0 0.00 1.59 1.59 93 1014.0
20260903230335 80 206 0.0 0.0 0.00 1.59 1.59 94 1013.9
20260903225832 80 227 0.0 0.0 0.00 1.59 1.59 94 1014.0
20260903225327 79 230 0.0 2.0 0.00 1.59 1.59 95 1013.8
20260903224824 79 199 0.0 1.0 0.00 1.59 1.59 95 1013.7
20260903224319 79 167 0.0 1.0 0.00 1.59 1.59 96 1013.7